Location: Cluj-Napoca
(46.7712°N, 23.6236°E)
Time: 14:11:30
(UTC+02:00)

ISS - Pass Details

Date: 28 January 2021
Orbit: 417 x 422 km, 51.6° (Epoch: 06 March)

Event Time Altitude Azimuth Distance (km) Brightness Sun altitude
Rises 19:50:18 0° 293° (WNW) 2,377 1.1 -25.2°
Reaches altitude 10° 19:52:28 10° 300° (WNW) 1,511 -0.2 -25.6°
Enters shadow 19:53:57 23° 312° (NW) 958 -1.5 -25.8°
